Time,TemperatureF,DewpointF,PressureIn,WindDirection,WindDirectionDegrees,WindSpeedMPH,WindSpeedGustMPH,Humidity,HourlyPrecipIn,Conditions,Clouds,dailyrainin,SoftwareType,DateUTC
2013-05-26 00:02:00,46.8,36.7,30.01,ESE,122,2.0,5.0,68,0.00,,,0.00,meteohub,2013-05-26 07:02:00,
2013-05-26 00:07:00,46.8,37.2,30.01,ESE,108,2.0,5.0,69,0.00,,,0.00,meteohub,2013-05-26 07:07:00,
2013-05-26 00:12:00,46.8,37.6,30.01,South,172,3.0,5.0,70,0.00,,,0.00,meteohub,2013-05-26 07:12:00,
2013-05-26 00:17:00,46.9,36.9,30.01,South,174,1.0,7.0,68,0.00,,,0.00,meteohub,2013-05-26 07:17:00,
2013-05-26 00:22:00,47.3,34.5,30.01,SSE,160,1.0,7.0,61,0.00,,,0.00,meteohub,2013-05-26 07:22:00,
2013-05-26 00:27:00,48.0,34.3,30.01,ESE,121,1.0,7.0,59,0.00,,,0.00,meteohub,2013-05-26 07:27:00,
2013-05-26 00:32:00,48.2,34.5,30.01,SE,127,2.0,9.0,59,0.00,,,0.00,meteohub,2013-05-26 07:32:00,
2013-05-26 00:37:00,48.6,33.6,30.01,SSW,200,2.0,9.0,56,0.00,,,0.00,meteohub,2013-05-26 07:37:00,
2013-05-26 00:42:00,48.7,35.4,30.01,SSE,153,1.0,9.0,60,0.00,,,0.00,meteohub,2013-05-26 07:42:00,
2013-05-26 00:47:00,48.6,35.8,30.01,ESE,120,5.0,7.0,61,0.00,,,0.00,meteohub,2013-05-26 07:47:00,
2013-05-26 00:52:00,48.6,35.2,30.01,SE,129,2.0,7.0,60,0.00,,,0.00,meteohub,2013-05-26 07:52:00,
2013-05-26 00:57:00,48.7,36.3,30.01,ESE,115,3.0,9.0,62,0.00,,,0.00,meteohub,2013-05-26 07:57:00,
2013-05-26 01:02:00,48.7,35.1,30.00,ENE,68,5.0,9.0,59,0.00,,,0.00,meteohub,2013-05-26 08:02:00,
2013-05-26 01:07:00,48.7,36.0,30.00,SE,129,3.0,9.0,61,0.00,,,0.00,meteohub,2013-05-26 08:07:00,
2013-05-26 01:12:00,48.6,36.1,30.00,ESE,122,2.0,13.0,62,0.00,,,0.00,meteohub,2013-05-26 08:12:00,
2013-05-26 01:17:00,48.4,36.3,30.00,East,101,2.0,13.0,63,0.00,,,0.00,meteohub,2013-05-26 08:17:00,
2013-05-26 01:22:00,48.0,36.0,30.00,SSE,165,3.0,13.0,63,0.00,,,0.00,meteohub,2013-05-26 08:22:00,
2013-05-26 01:27:00,48.0,36.5,30.00,West,273,2.0,12.0,64,0.00,,,0.00,meteohub,2013-05-26 08:27:00,
2013-05-26 01:32:00,47.8,35.8,30.00,ENE,76,2.0,8.0,63,0.00,,,0.00,meteohub,2013-05-26 08:32:00,
2013-05-26 01:37:00,48.0,36.0,29.99,East,94,9.0,9.0,63,0.00,,,0.00,meteohub,2013-05-26 08:37:00,
2013-05-26 01:42:00,48.2,34.2,29.99,SW,225,2.0,13.0,58,0.00,,,0.00,meteohub,2013-05-26 08:42:00,
2013-05-26 01:47:00,48.4,32.5,29.99,SSW,195,2.0,13.0,54,0.00,,,0.00,meteohub,2013-05-26 08:47:00,
2013-05-26 01:52:00,48.6,31.8,29.99,SSW,200,3.0,13.0,52,0.00,,,0.00,meteohub,2013-05-26 08:52:00,
2013-05-26 01:57:00,48.7,30.4,29.99,ENE,70,3.0,9.0,49,0.00,,,0.00,meteohub,2013-05-26 08:57:00,
2013-05-26 02:02:00,48.7,33.3,29.99,East,101,3.0,11.0,55,0.00,,,0.00,meteohub,2013-05-26 09:02:00,
2013-05-26 02:07:00,48.6,35.2,29.99,SE,141,6.0,11.0,60,0.00,,,0.00,meteohub,2013-05-26 09:07:00,
2013-05-26 02:12:00,48.4,35.1,29.99,SSE,148,4.0,14.0,60,0.00,,,0.00,meteohub,2013-05-26 09:12:00,
2013-05-26 02:17:00,48.4,34.3,29.99,SSW,193,2.0,14.0,58,0.00,,,0.00,meteohub,2013-05-26 09:17:00,
2013-05-26 02:22:00,48.2,35.8,29.98,ESE,122,2.0,14.0,62,0.00,,,0.00,meteohub,2013-05-26 09:22:00,
2013-05-26 02:27:00,48.0,36.0,29.98,SSW,195,3.0,12.0,63,0.00,,,0.00,meteohub,2013-05-26 09:27:00,
2013-05-26 02:32:00,48.0,35.6,29.98,ESE,120,5.0,12.0,62,0.00,,,0.00,meteohub,2013-05-26 09:32:00,
2013-05-26 02:37:00,48.0,34.3,29.98,SW,228,3.0,11.0,59,0.00,,,0.00,meteohub,2013-05-26 09:37:00,
2013-05-26 02:42:00,48.0,32.5,29.98,SW,229,3.0,11.0,55,0.00,,,0.00,meteohub,2013-05-26 09:42:00,
2013-05-26 02:47:00,48.0,32.2,29.97,East,85,8.0,11.0,54,0.00,,,0.00,meteohub,2013-05-26 09:47:00,
2013-05-26 02:52:00,48.4,27.5,29.98,South,176,2.0,13.0,44,0.00,,,0.00,meteohub,2013-05-26 09:52:00,
2013-05-26 02:57:00,48.7,25.5,29.98,WSW,257,3.0,14.0,40,0.00,,,0.00,meteohub,2013-05-26 09:57:00,
2013-05-26 03:02:00,48.6,25.9,29.98,WSW,238,4.0,14.0,41,0.00,,,0.00,meteohub,2013-05-26 10:02:00,
2013-05-26 03:07:00,48.6,21.4,29.97,SE,143,5.0,14.0,34,0.00,,,0.00,meteohub,2013-05-26 10:07:00,
2013-05-26 03:12:00,48.7,19.4,29.98,ESE,116,4.0,12.0,31,0.00,,,0.00,meteohub,2013-05-26 10:12:00,
2013-05-26 03:17:00,48.6,17.8,29.98,West,278,3.0,12.0,29,0.00,,,0.00,meteohub,2013-05-26 10:17:00,
2013-05-26 03:22:00,48.4,16.0,29.99,WNW,293,3.0,12.0,27,0.00,,,0.00,meteohub,2013-05-26 10:22:00,
2013-05-26 03:27:00,48.4,14.2,29.99,West,274,2.0,6.0,25,0.00,,,0.00,meteohub,2013-05-26 10:27:00,
2013-05-26 03:32:00,48.4,15.1,29.99,West,269,1.0,5.0,26,0.00,,,0.00,meteohub,2013-05-26 10:32:00,
2013-05-26 03:37:00,48.6,17.8,29.99,WNW,283,1.0,3.0,29,0.00,,,0.00,meteohub,2013-05-26 10:37:00,
2013-05-26 03:42:00,48.0,24.3,29.99,WSW,245,1.0,3.0,39,0.00,,,0.00,meteohub,2013-05-26 10:42:00,
2013-05-26 03:47:00,47.8,27.0,30.00,NW,319,3.0,3.0,44,0.00,,,0.00,meteohub,2013-05-26 10:47:00,
2013-05-26 03:52:00,47.3,27.5,30.00,WSW,248,0.0,4.0,46,0.00,,,0.00,meteohub,2013-05-26 10:52:00,
2013-05-26 03:57:00,46.6,28.9,30.00,West,278,2.0,4.0,50,0.00,,,0.00,meteohub,2013-05-26 10:57:00,
2013-05-26 04:02:00,46.0,28.9,30.00,West,260,1.0,4.0,51,0.00,,,0.00,meteohub,2013-05-26 11:02:00,
2013-05-26 04:07:00,45.7,28.6,29.99,WSW,250,2.0,2.0,51,0.00,,,0.00,meteohub,2013-05-26 11:07:00,
2013-05-26 04:12:00,45.3,27.3,29.99,WSW,250,0.0,2.0,49,0.00,,,0.00,meteohub,2013-05-26 11:12:00,
2013-05-26 04:17:00,45.3,27.3,29.99,WSW,251,1.0,2.0,49,0.00,,,0.00,meteohub,2013-05-26 11:17:00,
2013-05-26 04:22:00,45.1,27.7,29.99,WSW,251,0.0,2.0,50,0.00,,,0.00,meteohub,2013-05-26 11:22:00,
2013-05-26 04:27:00,45.0,27.5,29.99,West,263,0.0,2.0,50,0.00,,,0.00,meteohub,2013-05-26 11:27:00,
2013-05-26 04:32:00,44.4,26.4,29.99,West,263,0.0,1.0,49,0.00,,,0.00,meteohub,2013-05-26 11:32:00,
2013-05-26 04:37:00,44.6,27.1,29.99,WSW,246,0.0,0.0,50,0.00,,,0.00,meteohub,2013-05-26 11:37:00,
2013-05-26 04:42:00,45.0,25.3,29.99,SSW,203,0.0,0.0,46,0.00,,,0.00,meteohub,2013-05-26 11:42:00,
2013-05-26 04:47:00,45.0,25.9,29.99,WSW,243,0.0,0.0,47,0.00,,,0.00,meteohub,2013-05-26 11:47:00,
2013-05-26 04:52:00,45.1,20.5,29.99,WSW,245,0.0,0.0,37,0.00,,,0.00,meteohub,2013-05-26 11:52:00,
2013-05-26 04:57:00,45.5,18.1,29.99,WSW,238,0.0,0.0,33,0.00,,,0.00,meteohub,2013-05-26 11:57:00,
2013-05-26 05:02:00,45.9,19.8,29.99,SSW,193,0.0,2.0,35,0.00,,,0.00,meteohub,2013-05-26 12:02:00,
2013-05-26 05:07:00,45.9,17.6,29.99,WSW,239,1.0,3.0,32,0.00,,,0.00,meteohub,2013-05-26 12:07:00,
2013-05-26 05:12:00,46.0,17.8,29.99,WSW,246,1.0,3.0,32,0.00,,,0.00,meteohub,2013-05-26 12:12:00,
2013-05-26 05:17:00,46.0,17.1,29.99,West,259,1.0,2.0,31,0.00,,,0.00,meteohub,2013-05-26 12:17:00,
2013-05-26 05:22:00,46.6,16.9,30.00,WNW,283,0.0,3.0,30,0.00,,,0.00,meteohub,2013-05-26 12:22:00,
2013-05-26 05:27:00,46.2,17.2,30.00,WSW,238,1.0,3.0,31,0.00,,,0.00,meteohub,2013-05-26 12:27:00,
2013-05-26 05:32:00,46.2,18.0,29.99,ESE,120,4.0,4.0,32,0.00,,,0.00,meteohub,2013-05-26 12:32:00,
2013-05-26 05:37:00,46.6,19.8,29.99,West,270,1.0,5.0,34,0.00,,,0.00,meteohub,2013-05-26 12:37:00,
2013-05-26 05:42:00,46.2,20.1,29.99,WNW,293,2.0,5.0,35,0.00,,,0.00,meteohub,2013-05-26 12:42:00,
2013-05-26 05:47:00,46.2,21.9,29.99,NW,316,1.0,5.0,38,0.00,,,0.00,meteohub,2013-05-26 12:47:00,
2013-05-26 05:52:00,46.6,21.7,29.99,WNW,293,2.0,4.0,37,0.00,,,0.00,meteohub,2013-05-26 12:52:00,
2013-05-26 05:57:00,46.9,22.6,30.00,ESE,115,1.0,4.0,38,0.00,,,0.00,meteohub,2013-05-26 12:57:00,
2013-05-26 06:02:00,46.8,23.7,29.99,WNW,298,1.0,3.0,40,0.00,,,0.00,meteohub,2013-05-26 13:02:00,
2013-05-26 06:07:00,47.1,24.6,30.00,WNW,288,0.0,3.0,41,0.00,,,0.00,meteohub,2013-05-26 13:07:00,
2013-05-26 06:12:00,47.7,24.4,29.99,West,265,2.0,2.0,40,0.00,,,0.00,meteohub,2013-05-26 13:12:00,
2013-05-26 06:17:00,47.7,25.2,29.99,SE,136,1.0,3.0,41,0.00,,,0.00,meteohub,2013-05-26 13:17:00,
2013-05-26 06:22:00,48.4,25.7,29.99,West,270,1.0,5.0,41,0.00,,,0.00,meteohub,2013-05-26 13:22:00,
2013-05-26 06:27:00,48.7,26.6,30.00,SSE,162,3.0,5.0,42,0.00,,,0.00,meteohub,2013-05-26 13:27:00,
2013-05-26 06:32:00,49.3,26.6,30.00,SE,127,1.0,6.0,41,0.00,,,0.00,meteohub,2013-05-26 13:32:00,
2013-05-26 06:42:00,50.2,28.6,30.00,NW,322,0.0,6.0,43,0.00,,,0.00,meteohub,2013-05-26 13:42:00,
2013-05-26 06:47:00,50.4,28.8,30.00,WSW,249,1.0,4.0,43,0.00,,,0.00,meteohub,2013-05-26 13:47:00,
2013-05-26 06:52:00,50.7,29.1,30.00,East,95,3.0,5.0,43,0.00,,,0.00,meteohub,2013-05-26 13:52:00,
2013-05-26 06:57:00,51.3,29.5,30.01,WNW,291,0.0,5.0,43,0.00,,,0.00,meteohub,2013-05-26 13:57:00,
2013-05-26 07:02:00,51.4,30.2,30.01,SW,219,0.0,5.0,44,0.00,,,0.00,meteohub,2013-05-26 14:02:00,
2013-05-26 07:07:00,51.6,29.3,30.01,ESE,109,2.0,5.0,42,0.00,,,0.00,meteohub,2013-05-26 14:07:00,
2013-05-26 07:12:00,52.2,29.1,30.00,ESE,113,1.0,5.0,41,0.00,,,0.00,meteohub,2013-05-26 14:12:00,
2013-05-26 07:17:00,52.2,29.1,30.01,SSW,205,2.0,5.0,41,0.00,,,0.00,meteohub,2013-05-26 14:17:00,
2013-05-26 07:22:00,52.3,29.3,30.01,East,87,1.0,5.0,41,0.00,,,0.00,meteohub,2013-05-26 14:22:00,
2013-05-26 07:27:00,52.5,28.9,30.01,SE,129,3.0,5.0,40,0.00,,,0.00,meteohub,2013-05-26 14:27:00,
2013-05-26 07:32:00,52.9,30.4,30.01,East,81,0.0,6.0,42,0.00,,,0.00,meteohub,2013-05-26 14:32:00,
2013-05-26 07:37:00,52.9,30.4,30.01,ENE,58,2.0,6.0,42,0.00,,,0.00,meteohub,2013-05-26 14:37:00,
2013-05-26 07:42:00,53.1,30.0,30.01,SSW,201,1.0,6.0,41,0.00,,,0.00,meteohub,2013-05-26 14:42:00,
2013-05-26 07:47:00,53.2,30.7,30.01,NNW,330,1.0,4.0,42,0.00,,,0.00,meteohub,2013-05-26 14:47:00,
2013-05-26 07:52:00,53.6,30.4,30.01,North,6,0.0,5.0,41,0.00,,,0.00,meteohub,2013-05-26 14:52:00,
2013-05-26 07:57:00,53.8,30.6,30.01,North,0,4.0,7.0,41,0.00,,,0.00,meteohub,2013-05-26 14:57:00,
2013-05-26 08:02:00,54.1,30.9,30.01,NE,53,1.0,7.0,41,0.00,,,0.00,meteohub,2013-05-26 15:02:00,
2013-05-26 08:07:00,54.7,31.5,30.01,ENE,72,3.0,7.0,41,0.00,,,0.00,meteohub,2013-05-26 15:07:00,
2013-05-26 08:12:00,55.0,31.1,30.01,SSW,205,3.0,5.0,40,0.00,,,0.00,meteohub,2013-05-26 15:12:00,
2013-05-26 08:17:00,55.4,30.9,30.01,East,79,4.0,12.0,39,0.00,,,0.00,meteohub,2013-05-26 15:17:00,
2013-05-26 08:22:00,55.8,31.1,30.01,SE,134,6.0,12.0,39,0.00,,,0.00,meteohub,2013-05-26 15:22:00,
2013-05-26 08:27:00,56.1,30.9,30.01,SW,215,8.0,12.0,38,0.00,,,0.00,meteohub,2013-05-26 15:27:00,
2013-05-26 08:32:00,56.7,32.0,30.01,South,170,3.0,12.0,39,0.00,,,0.00,meteohub,2013-05-26 15:32:00,
2013-05-26 08:37:00,57.0,32.9,30.01,SSE,160,10.0,10.0,40,0.00,,,0.00,meteohub,2013-05-26 15:37:00,
2013-05-26 08:42:00,57.4,33.3,30.01,SSW,193,3.0,12.0,40,0.00,,,0.00,meteohub,2013-05-26 15:42:00,
2013-05-26 08:47:00,57.6,34.0,30.01,SSE,147,3.0,12.0,41,0.00,,,0.00,meteohub,2013-05-26 15:47:00,
2013-05-26 08:52:00,57.6,32.7,30.01,South,179,11.0,12.0,39,0.00,,,0.00,meteohub,2013-05-26 15:52:00,
2013-05-26 08:57:00,57.9,33.1,30.02,South,177,3.0,12.0,39,0.00,,,0.00,meteohub,2013-05-26 15:57:00,
2013-05-26 09:02:00,58.3,34.0,30.02,SSE,147,7.0,12.0,40,0.00,,,0.00,meteohub,2013-05-26 16:02:00,
2013-05-26 09:07:00,57.7,33.6,30.02,SW,221,5.0,12.0,40,0.00,,,0.00,meteohub,2013-05-26 16:07:00,
2013-05-26 09:12:00,57.6,33.4,30.02,South,188,1.0,15.0,40,0.00,,,0.00,meteohub,2013-05-26 16:12:00,
2013-05-26 09:17:00,57.9,33.8,30.02,SE,132,4.0,15.0,40,0.00,,,0.00,meteohub,2013-05-26 16:17:00,
2013-05-26 09:22:00,57.9,34.3,30.02,WSW,256,2.0,15.0,41,0.00,,,0.00,meteohub,2013-05-26 16:22:00,
2013-05-26 09:27:00,58.1,36.3,30.02,SE,146,4.0,13.0,44,0.00,,,0.00,meteohub,2013-05-26 16:27:00,
2013-05-26 09:32:00,57.9,36.1,30.02,South,190,8.0,13.0,44,0.00,,,0.00,meteohub,2013-05-26 16:32:00,
2013-05-26 09:37:00,57.6,35.8,30.02,East,90,3.0,13.0,44,0.00,,,0.00,meteohub,2013-05-26 16:37:00,
2013-05-26 09:42:00,57.6,36.9,30.02,SSE,166,8.0,14.0,46,0.00,,,0.00,meteohub,2013-05-26 16:42:00,
2013-05-26 09:47:00,57.6,36.9,30.02,SSE,160,2.0,14.0,46,0.00,,,0.00,meteohub,2013-05-26 16:47:00,
2013-05-26 09:52:00,57.6,37.4,30.02,ESE,117,3.0,14.0,47,0.00,,,0.00,meteohub,2013-05-26 16:52:00,
2013-05-26 09:57:00,57.6,37.9,30.02,SW,224,4.0,16.0,48,0.00,,,0.00,meteohub,2013-05-26 16:57:00,
2013-05-26 10:02:00,57.9,37.2,30.02,SE,138,4.0,16.0,46,0.00,,,0.00,meteohub,2013-05-26 17:02:00,
2013-05-26 10:07:00,57.9,36.7,30.02,SSE,165,4.0,16.0,45,0.00,,,0.00,meteohub,2013-05-26 17:07:00,
2013-05-26 10:12:00,58.1,35.1,30.02,SSW,196,6.0,14.0,42,0.00,,,0.00,meteohub,2013-05-26 17:12:00,
2013-05-26 10:17:00,58.6,35.6,30.02,East,79,3.0,13.0,42,0.00,,,0.00,meteohub,2013-05-26 17:17:00,
2013-05-26 10:22:00,59.2,36.7,30.02,SW,233,3.0,15.0,43,0.00,,,0.00,meteohub,2013-05-26 17:22:00,
2013-05-26 10:27:00,59.5,40.3,30.02,WSW,256,2.0,15.0,49,0.00,,,0.00,meteohub,2013-05-26 17:27:00,
2013-05-26 10:32:00,59.5,40.3,30.02,East,94,3.0,15.0,49,0.00,,,0.00,meteohub,2013-05-26 17:32:00,
2013-05-26 10:37:00,59.4,40.6,30.02,East,91,3.0,13.0,50,0.00,,,0.00,meteohub,2013-05-26 17:37:00,
2013-05-26 10:42:00,58.8,40.8,30.02,SSE,163,5.0,13.0,51,0.00,,,0.00,meteohub,2013-05-26 17:42:00,
2013-05-26 10:47:00,58.8,42.6,30.02,South,177,2.0,13.0,55,0.00,,,0.00,meteohub,2013-05-26 17:47:00,
2013-05-26 10:52:00,58.8,42.3,30.02,WSW,250,4.0,12.0,54,0.00,,,0.00,meteohub,2013-05-26 17:52:00,
2013-05-26 10:57:00,58.5,42.4,30.02,SSE,153,3.0,15.0,55,0.00,,,0.00,meteohub,2013-05-26 17:57:00,
2013-05-26 11:02:00,58.1,42.4,30.02,SSE,149,4.0,15.0,56,0.00,,,0.00,meteohub,2013-05-26 18:02:00,
2013-05-26 11:07:00,57.4,41.9,30.03,ENE,66,6.0,15.0,56,0.00,,,0.00,meteohub,2013-05-26 18:07:00,
2013-05-26 11:12:00,57.0,43.3,30.02,SW,232,6.0,17.0,60,0.00,,,0.00,meteohub,2013-05-26 18:12:00,
2013-05-26 11:17:00,57.0,44.1,30.02,South,180,4.0,17.0,62,0.00,,,0.00,meteohub,2013-05-26 18:17:00,
2013-05-26 11:22:00,57.0,44.1,30.02,SSE,160,8.0,17.0,62,0.00,,,0.00,meteohub,2013-05-26 18:22:00,
2013-05-26 11:27:00,56.7,45.0,30.02,SSE,150,13.0,20.0,65,0.00,,,0.00,meteohub,2013-05-26 18:27:00,
2013-05-26 11:32:00,56.7,44.6,30.02,ESE,102,4.0,20.0,64,0.00,,,0.00,meteohub,2013-05-26 18:32:00,
2013-05-26 11:37:00,57.0,45.9,30.02,SW,228,5.0,20.0,66,0.00,,,0.00,meteohub,2013-05-26 18:37:00,
2013-05-26 11:42:00,57.6,43.7,30.02,SSE,155,8.0,17.0,60,0.00,,,0.00,meteohub,2013-05-26 18:42:00,
2013-05-26 11:47:00,57.6,42.4,30.02,NE,43,8.0,15.0,57,0.00,,,0.00,meteohub,2013-05-26 18:47:00,
2013-05-26 11:52:00,57.2,42.6,30.01,SE,127,10.0,17.0,58,0.00,,,0.00,meteohub,2013-05-26 18:52:00,
2013-05-26 11:57:00,57.2,43.0,30.01,SE,132,1.0,17.0,59,0.00,,,0.00,meteohub,2013-05-26 18:57:00,
2013-05-26 12:02:00,57.4,44.4,30.02,ESE,122,7.0,17.0,62,0.00,,,0.00,meteohub,2013-05-26 19:02:00,
2013-05-26 12:07:00,57.0,45.0,30.01,SE,134,4.0,16.0,64,0.00,,,0.00,meteohub,2013-05-26 19:07:00,
2013-05-26 12:12:00,56.8,43.5,30.01,South,186,10.0,17.0,61,0.00,,,0.00,meteohub,2013-05-26 19:12:00,
2013-05-26 12:17:00,56.7,43.7,30.02,SE,124,3.0,17.0,62,0.00,,,0.00,meteohub,2013-05-26 19:17:00,
2013-05-26 12:22:00,56.7,43.0,30.02,South,174,5.0,18.0,60,0.00,,,0.00,meteohub,2013-05-26 19:22:00,
2013-05-26 12:27:00,56.8,41.4,30.02,SE,135,3.0,18.0,56,0.00,,,0.00,meteohub,2013-05-26 19:27:00,
2013-05-26 12:32:00,56.8,43.2,30.01,SSE,163,8.0,18.0,60,0.00,,,0.00,meteohub,2013-05-26 19:32:00,
2013-05-26 12:37:00,56.7,43.0,30.01,SW,232,4.0,17.0,60,0.00,,,0.00,meteohub,2013-05-26 19:37:00,
2013-05-26 12:42:00,56.7,42.1,30.02,SE,128,5.0,16.0,58,0.00,,,0.00,meteohub,2013-05-26 19:42:00,
2013-05-26 12:47:00,56.7,42.4,30.01,SSE,160,6.0,16.0,59,0.00,,,0.00,meteohub,2013-05-26 19:47:00,
2013-05-26 12:52:00,56.8,43.2,30.02,SE,134,11.0,17.0,60,0.00,,,0.00,meteohub,2013-05-26 19:52:00,
2013-05-26 12:57:00,56.5,42.3,30.02,SW,228,8.0,17.0,59,0.00,,,0.00,meteohub,2013-05-26 19:57:00,
2013-05-26 13:02:00,56.7,42.4,30.02,South,190,4.0,19.0,59,0.00,,,0.00,meteohub,2013-05-26 20:02:00,
2013-05-26 13:07:00,56.7,43.0,30.01,South,175,4.0,19.0,60,0.00,,,0.00,meteohub,2013-05-26 20:07:00,
2013-05-26 13:12:00,56.7,43.0,30.02,NE,50,8.0,18.0,60,0.00,,,0.00,meteohub,2013-05-26 20:12:00,
2013-05-26 13:17:00,57.0,43.3,30.02,SSE,155,3.0,17.0,60,0.00,,,0.00,meteohub,2013-05-26 20:17:00,
2013-05-26 13:22:00,56.8,42.3,30.02,ENE,73,11.0,19.0,58,0.00,,,0.00,meteohub,2013-05-26 20:22:00,
2013-05-26 13:27:00,57.2,43.0,30.02,SSE,155,5.0,19.0,59,0.00,,,0.00,meteohub,2013-05-26 20:27:00,
2013-05-26 13:32:00,57.0,41.9,30.02,ESE,102,9.0,19.0,57,0.00,,,0.00,meteohub,2013-05-26 20:32:00,
2013-05-26 13:37:00,57.4,42.3,30.03,West,264,7.0,18.0,57,0.00,,,0.00,meteohub,2013-05-26 20:37:00,
2013-05-26 13:42:00,57.0,42.8,30.03,SSE,153,17.0,18.0,59,0.00,,,0.00,meteohub,2013-05-26 20:42:00,
2013-05-26 13:47:00,56.7,42.1,30.03,SW,231,7.0,20.0,58,0.00,,,0.00,meteohub,2013-05-26 20:47:00,
2013-05-26 13:52:00,56.5,42.3,30.02,SSW,194,5.0,20.0,59,0.00,,,0.00,meteohub,2013-05-26 20:52:00,
2013-05-26 13:57:00,57.2,41.7,30.02,SE,125,12.0,20.0,56,0.00,,,0.00,meteohub,2013-05-26 20:57:00,
2013-05-26 14:02:00,57.2,41.7,30.03,WSW,243,8.0,20.0,56,0.00,,,0.00,meteohub,2013-05-26 21:02:00,
2013-05-26 14:07:00,57.2,41.2,30.03,West,262,5.0,20.0,55,0.00,,,0.00,meteohub,2013-05-26 21:07:00,
2013-05-26 14:12:00,57.2,41.7,30.03,WSW,238,4.0,20.0,56,0.00,,,0.00,meteohub,2013-05-26 21:12:00,
2013-05-26 14:17:00,57.4,41.9,30.03,SSW,212,9.0,19.0,56,0.00,,,0.00,meteohub,2013-05-26 21:17:00,
2013-05-26 14:22:00,57.7,41.7,30.03,SW,235,5.0,19.0,55,0.00,,,0.00,meteohub,2013-05-26 21:22:00,
2013-05-26 14:27:00,58.3,42.3,30.03,SSE,150,5.0,17.0,55,0.00,,,0.00,meteohub,2013-05-26 21:27:00,
2013-05-26 14:32:00,57.9,41.4,30.03,SE,124,8.0,16.0,54,0.00,,,0.00,meteohub,2013-05-26 21:32:00,
2013-05-26 14:37:00,57.9,42.3,30.03,SSE,163,2.0,16.0,56,0.00,,,0.00,meteohub,2013-05-26 21:37:00,
2013-05-26 14:42:00,58.3,42.3,30.03,ENE,57,10.0,16.0,55,0.00,,,0.00,meteohub,2013-05-26 21:42:00,
2013-05-26 14:47:00,58.5,41.9,30.03,SSW,197,4.0,16.0,54,0.00,,,0.00,meteohub,2013-05-26 21:47:00,
2013-05-26 14:52:00,58.5,41.9,30.03,SW,221,5.0,16.0,54,0.00,,,0.00,meteohub,2013-05-26 21:52:00,
2013-05-26 14:57:00,58.3,42.3,30.03,WSW,246,2.0,16.0,55,0.00,,,0.00,meteohub,2013-05-26 21:57:00,
2013-05-26 15:02:00,57.9,41.9,30.03,ESE,120,4.0,16.0,55,0.00,,,0.00,meteohub,2013-05-26 22:02:00,
2013-05-26 15:07:00,57.9,41.4,30.03,NNW,330,3.0,16.0,54,0.00,,,0.00,meteohub,2013-05-26 22:07:00,
2013-05-26 15:12:00,57.6,41.9,30.03,SSE,167,5.0,16.0,56,0.00,,,0.00,meteohub,2013-05-26 22:12:00,
2013-05-26 15:17:00,57.7,42.1,30.03,East,94,5.0,18.0,56,0.00,,,0.00,meteohub,2013-05-26 22:17:00,
2013-05-26 15:22:00,57.6,42.4,30.03,ESE,103,7.0,18.0,57,0.00,,,0.00,meteohub,2013-05-26 22:22:00,
2013-05-26 15:27:00,57.6,43.0,30.03,SE,130,2.0,16.0,58,0.00,,,0.00,meteohub,2013-05-26 22:27:00,
2013-05-26 15:32:00,57.4,42.8,30.03,SSE,162,3.0,23.0,58,0.00,,,0.00,meteohub,2013-05-26 22:32:00,
2013-05-26 15:37:00,57.4,42.8,30.02,SW,215,5.0,23.0,58,0.00,,,0.00,meteohub,2013-05-26 22:37:00,
2013-05-26 15:42:00,57.0,42.4,30.03,SE,143,1.0,23.0,58,0.00,,,0.00,meteohub,2013-05-26 22:42:00,
2013-05-26 15:47:00,57.7,42.6,30.02,South,177,13.0,19.0,57,0.00,,,0.00,meteohub,2013-05-26 22:47:00,
2013-05-26 15:52:00,57.2,41.7,30.02,SE,130,8.0,19.0,56,0.00,,,0.00,meteohub,2013-05-26 22:52:00,
2013-05-26 15:57:00,57.0,41.9,30.02,SE,141,4.0,17.0,57,0.00,,,0.00,meteohub,2013-05-26 22:57:00,
2013-05-26 16:02:00,57.0,41.0,30.03,SSE,163,4.0,17.0,55,0.00,,,0.00,meteohub,2013-05-26 23:02:00,
2013-05-26 16:07:00,57.0,41.0,30.02,NW,315,4.0,17.0,55,0.00,,,0.00,meteohub,2013-05-26 23:07:00,
2013-05-26 16:12:00,57.0,40.5,30.02,ESE,110,10.0,14.0,54,0.00,,,0.00,meteohub,2013-05-26 23:12:00,
2013-05-26 16:17:00,56.7,40.6,30.02,SE,124,13.0,20.0,55,0.00,,,0.00,meteohub,2013-05-26 23:17:00,
2013-05-26 16:22:00,56.5,41.4,30.02,SSW,203,6.0,20.0,57,0.00,,,0.00,meteohub,2013-05-26 23:22:00,
2013-05-26 16:27:00,56.5,41.4,30.02,WSW,240,5.0,20.0,57,0.00,,,0.00,meteohub,2013-05-26 23:27:00,
2013-05-26 16:32:00,56.1,41.2,30.02,SSE,163,10.0,14.0,57,0.00,,,0.00,meteohub,2013-05-26 23:32:00,
2013-05-26 16:37:00,55.8,40.8,30.02,ESE,117,7.0,18.0,57,0.00,,,0.00,meteohub,2013-05-26 23:37:00,
2013-05-26 16:42:00,55.6,40.1,30.02,ENE,73,4.0,21.0,56,0.00,,,0.00,meteohub,2013-05-26 23:42:00,
2013-05-26 16:47:00,55.8,39.9,30.02,SSW,193,2.0,21.0,55,0.00,,,0.00,meteohub,2013-05-26 23:47:00,
2013-05-26 16:52:00,55.8,39.9,30.02,East,98,6.0,21.0,55,0.00,,,0.00,meteohub,2013-05-26 23:52:00,
2013-05-26 16:57:00,55.8,41.2,30.02,SE,127,3.0,15.0,58,0.00,,,0.00,meteohub,2013-05-26 23:57:00,
2013-05-26 17:02:00,55.8,41.7,30.01,SSE,160,5.0,15.0,59,0.00,,,0.00,meteohub,2013-05-27 00:02:00,
2013-05-26 17:07:00,55.8,43.0,30.01,SSE,158,3.0,15.0,62,0.00,,,0.00,meteohub,2013-05-27 00:07:00,
2013-05-26 17:12:00,55.9,43.2,30.01,SSE,153,6.0,15.0,62,0.00,,,0.00,meteohub,2013-05-27 00:12:00,
2013-05-26 17:17:00,55.8,42.4,30.01,ESE,120,7.0,15.0,61,0.00,,,0.00,meteohub,2013-05-27 00:17:00,
2013-05-26 17:22:00,55.9,43.5,30.01,East,84,3.0,12.0,63,0.00,,,0.00,meteohub,2013-05-27 00:22:00,
2013-05-26 17:27:00,55.8,43.7,30.01,SE,146,6.0,12.0,64,0.00,,,0.00,meteohub,2013-05-27 00:27:00,
2013-05-26 17:32:00,55.8,43.0,30.01,East,100,5.0,13.0,62,0.00,,,0.00,meteohub,2013-05-27 00:32:00,
2013-05-26 17:37:00,55.8,44.2,30.01,SE,132,2.0,13.0,65,0.00,,,0.00,meteohub,2013-05-27 00:37:00,
2013-05-26 17:42:00,55.8,44.6,30.01,SW,224,3.0,13.0,66,0.00,,,0.00,meteohub,2013-05-27 00:42:00,
2013-05-26 17:47:00,55.6,44.8,30.01,SE,128,5.0,13.0,67,0.00,,,0.00,meteohub,2013-05-27 00:47:00,
2013-05-26 17:52:00,55.4,45.3,30.01,ENE,65,2.0,13.0,69,0.00,,,0.00,meteohub,2013-05-27 00:52:00,
2013-05-26 17:57:00,55.2,44.8,30.01,SE,133,6.0,12.0,68,0.00,,,0.00,meteohub,2013-05-27 00:57:00,
2013-05-26 18:02:00,55.2,45.7,30.01,SSW,201,2.0,16.0,70,0.00,,,0.00,meteohub,2013-05-27 01:02:00,
2013-05-26 18:07:00,55.0,46.2,30.01,ESE,110,6.0,16.0,72,0.00,,,0.00,meteohub,2013-05-27 01:07:00,
2013-05-26 18:12:00,54.7,46.6,30.01,SSE,158,8.0,16.0,74,0.00,,,0.00,meteohub,2013-05-27 01:12:00,
2013-05-26 18:17:00,54.5,46.4,30.01,SW,229,8.0,14.0,74,0.00,,,0.00,meteohub,2013-05-27 01:17:00,
2013-05-26 18:22:00,54.3,46.2,30.01,SE,129,2.0,14.0,74,0.00,,,0.00,meteohub,2013-05-27 01:22:00,
2013-05-26 18:27:00,54.0,46.2,30.01,ESE,123,2.0,13.0,75,0.00,,,0.00,meteohub,2013-05-27 01:27:00,
2013-05-26 18:32:00,53.4,46.0,30.00,South,169,4.0,13.0,76,0.00,,,0.00,meteohub,2013-05-27 01:32:00,
2013-05-26 18:37:00,52.9,46.2,30.01,ESE,120,2.0,13.0,78,0.00,,,0.00,meteohub,2013-05-27 01:37:00,
2013-05-26 18:42:00,52.5,46.2,30.01,West,264,7.0,12.0,79,0.00,,,0.00,meteohub,2013-05-27 01:42:00,
2013-05-26 18:47:00,52.2,46.2,30.01,SSE,166,5.0,13.0,80,0.00,,,0.00,meteohub,2013-05-27 01:47:00,
2013-05-26 18:52:00,52.0,46.0,30.01,SE,129,1.0,13.0,80,0.00,,,0.00,meteohub,2013-05-27 01:52:00,
2013-05-26 18:57:00,51.6,46.0,30.01,SSE,165,5.0,13.0,81,0.00,,,0.00,meteohub,2013-05-27 01:57:00,
2013-05-26 19:02:00,51.3,46.0,30.01,ESE,122,7.0,12.0,82,0.00,,,0.00,meteohub,2013-05-27 02:02:00,
2013-05-26 19:07:00,51.1,46.0,30.01,SE,142,9.0,14.0,83,0.00,,,0.00,meteohub,2013-05-27 02:07:00,
2013-05-26 19:12:00,50.7,46.0,30.01,ESE,118,3.0,17.0,84,0.00,,,0.00,meteohub,2013-05-27 02:12:00,
2013-05-26 19:17:00,50.5,46.2,30.01,SW,218,7.0,17.0,85,0.00,,,0.00,meteohub,2013-05-27 02:17:00,
2013-05-26 19:22:00,50.4,46.4,30.01,SE,124,3.0,17.0,86,0.00,,,0.00,meteohub,2013-05-27 02:22:00,
2013-05-26 19:27:00,50.0,46.2,30.01,ESE,107,4.0,13.0,87,0.00,,,0.00,meteohub,2013-05-27 02:27:00,
2013-05-26 19:32:00,49.8,46.0,30.01,NNW,328,5.0,13.0,87,0.00,,,0.00,meteohub,2013-05-27 02:32:00,
2013-05-26 19:37:00,49.6,46.2,30.01,SSW,196,5.0,12.0,88,0.00,,,0.00,meteohub,2013-05-27 02:37:00,
2013-05-26 19:42:00,49.5,46.0,30.01,SE,145,9.0,10.0,88,0.00,,,0.00,meteohub,2013-05-27 02:42:00,
2013-05-26 19:47:00,49.3,46.2,30.01,South,170,2.0,11.0,89,0.00,,,0.00,meteohub,2013-05-27 02:47:00,
2013-05-26 19:52:00,49.1,46.2,30.01,SSE,156,7.0,11.0,90,0.00,,,0.00,meteohub,2013-05-27 02:52:00,
2013-05-26 19:57:00,48.9,46.0,30.01,SSW,203,4.0,11.0,90,0.00,,,0.00,meteohub,2013-05-27 02:57:00,
2013-05-26 20:02:00,48.9,46.0,30.01,SSW,195,8.0,11.0,90,0.00,,,0.00,meteohub,2013-05-27 03:02:00,
2013-05-26 20:07:00,48.7,46.2,30.01,SE,146,12.0,14.0,91,0.00,,,0.00,meteohub,2013-05-27 03:07:00,
2013-05-26 20:12:00,48.6,46.4,30.01,SSE,165,4.0,15.0,92,0.00,,,0.00,meteohub,2013-05-27 03:12:00,
2013-05-26 20:17:00,48.4,46.2,30.02,SE,129,2.0,15.0,92,0.00,,,0.00,meteohub,2013-05-27 03:17:00,
2013-05-26 20:22:00,48.4,45.9,30.02,ENE,76,0.0,15.0,91,0.00,,,0.00,meteohub,2013-05-27 03:22:00,
2013-05-26 20:27:00,48.6,46.0,30.02,SW,214,3.0,12.0,91,0.00,,,0.00,meteohub,2013-05-27 03:27:00,
2013-05-26 20:32:00,48.7,45.9,30.02,SE,131,6.0,12.0,90,0.00,,,0.00,meteohub,2013-05-27 03:32:00,
2013-05-26 20:37:00,48.7,45.7,30.02,SE,129,6.0,14.0,89,0.00,,,0.00,meteohub,2013-05-27 03:37:00,
2013-05-26 20:42:00,48.9,45.9,30.02,SSW,195,5.0,14.0,89,0.00,,,0.00,meteohub,2013-05-27 03:42:00,
2013-05-26 20:47:00,48.7,45.7,30.02,SE,141,4.0,11.0,89,0.00,,,0.00,meteohub,2013-05-27 03:47:00,
2013-05-26 20:52:00,48.6,45.7,30.03,ESE,120,6.0,13.0,90,0.00,,,0.00,meteohub,2013-05-27 03:52:00,
2013-05-26 20:57:00,48.4,45.0,30.02,SE,136,9.0,13.0,88,0.00,,,0.00,meteohub,2013-05-27 03:57:00,
2013-05-26 21:02:00,48.6,44.6,30.03,SE,131,5.0,14.0,86,0.00,,,0.00,meteohub,2013-05-27 04:02:00,
2013-05-26 21:07:00,48.7,43.9,30.03,ESE,117,5.0,14.0,83,0.00,,,0.00,meteohub,2013-05-27 04:07:00,
2013-05-26 21:12:00,49.3,44.4,30.03,East,90,5.0,14.0,83,0.00,,,0.00,meteohub,2013-05-27 04:12:00,
2013-05-26 21:17:00,49.5,44.2,30.02,ESE,103,8.0,18.0,82,0.00,,,0.00,meteohub,2013-05-27 04:17:00,
2013-05-26 21:22:00,49.8,44.2,30.03,ENE,68,6.0,18.0,81,0.00,,,0.00,meteohub,2013-05-27 04:22:00,
2013-05-26 21:27:00,50.0,44.1,30.03,ESE,103,3.0,17.0,80,0.00,,,0.00,meteohub,2013-05-27 04:27:00,
2013-05-26 21:32:00,50.2,44.2,30.03,SE,139,4.0,19.0,80,0.00,,,0.00,meteohub,2013-05-27 04:32:00,
2013-05-26 21:37:00,50.2,43.9,30.04,SE,132,3.0,19.0,79,0.00,,,0.00,meteohub,2013-05-27 04:37:00,
2013-05-26 21:42:00,50.4,43.7,30.04,SE,128,5.0,14.0,78,0.00,,,0.00,meteohub,2013-05-27 04:42:00,
2013-05-26 21:47:00,50.4,43.3,30.04,SE,136,6.0,14.0,77,0.00,,,0.00,meteohub,2013-05-27 04:47:00,
2013-05-26 21:52:00,50.4,43.3,30.04,South,170,8.0,15.0,77,0.00,,,0.00,meteohub,2013-05-27 04:52:00,
2013-05-26 21:57:00,50.4,43.2,30.04,ENE,74,5.0,15.0,76,0.00,,,0.00,meteohub,2013-05-27 04:57:00,
2013-05-26 22:02:00,50.2,42.6,30.04,SSE,165,1.0,15.0,75,0.00,,,0.00,meteohub,2013-05-27 05:02:00,
2013-05-26 22:07:00,50.2,41.9,30.04,SE,126,6.0,12.0,73,0.00,,,0.00,meteohub,2013-05-27 05:07:00,
2013-05-26 22:12:00,50.2,41.2,30.04,SW,218,2.0,10.0,71,0.00,,,0.00,meteohub,2013-05-27 05:12:00,
2013-05-26 22:17:00,50.0,39.9,30.04,East,91,2.0,10.0,68,0.00,,,0.00,meteohub,2013-05-27 05:17:00,
2013-05-26 22:22:00,50.2,39.6,30.04,NNW,343,3.0,10.0,67,0.00,,,0.00,meteohub,2013-05-27 05:22:00,
2013-05-26 22:27:00,49.8,39.7,30.04,SSE,166,3.0,10.0,68,0.00,,,0.00,meteohub,2013-05-27 05:27:00,
2013-05-26 22:32:00,49.6,39.6,30.04,South,169,1.0,10.0,68,0.00,,,0.00,meteohub,2013-05-27 05:32:00,
2013-05-26 22:37:00,49.8,38.1,30.04,SW,214,3.0,7.0,64,0.00,,,0.00,meteohub,2013-05-27 05:37:00,
2013-05-26 22:42:00,50.2,38.1,30.04,ESE,103,2.0,14.0,63,0.00,,,0.00,meteohub,2013-05-27 05:42:00,
2013-05-26 22:47:00,50.2,38.5,30.04,ESE,113,5.0,14.0,64,0.00,,,0.00,meteohub,2013-05-27 05:47:00,
2013-05-26 22:52:00,50.0,39.6,30.04,WNW,286,5.0,13.0,67,0.00,,,0.00,meteohub,2013-05-27 05:52:00,
2013-05-26 22:57:00,49.8,38.5,30.04,ESE,106,8.0,10.0,65,0.00,,,0.00,meteohub,2013-05-27 05:57:00,
2013-05-26 23:02:00,49.6,37.6,30.03,SSW,208,3.0,10.0,63,0.00,,,0.00,meteohub,2013-05-27 06:02:00,
2013-05-26 23:07:00,49.8,37.4,30.03,South,187,1.0,8.0,62,0.00,,,0.00,meteohub,2013-05-27 06:07:00,
2013-05-26 23:12:00,49.6,36.7,30.03,ESE,103,4.0,14.0,61,0.00,,,0.00,meteohub,2013-05-27 06:12:00,
2013-05-26 23:17:00,49.8,36.1,30.03,SE,138,1.0,14.0,59,0.00,,,0.00,meteohub,2013-05-27 06:17:00,
2013-05-26 23:22:00,49.6,36.0,30.02,SW,226,4.0,11.0,59,0.00,,,0.00,meteohub,2013-05-27 06:22:00,
2013-05-26 23:27:00,49.8,36.1,30.02,ESE,105,5.0,12.0,59,0.00,,,0.00,meteohub,2013-05-27 06:27:00,
2013-05-26 23:32:00,50.2,36.0,30.02,ESE,117,4.0,12.0,58,0.00,,,0.00,meteohub,2013-05-27 06:32:00,
2013-05-26 23:37:00,50.0,36.3,30.02,South,179,4.0,12.0,59,0.00,,,0.00,meteohub,2013-05-27 06:37:00,
2013-05-26 23:42:00,49.8,36.1,30.01,SSW,197,3.0,10.0,59,0.00,,,0.00,meteohub,2013-05-27 06:42:00,
2013-05-26 23:47:00,50.2,36.3,30.01,ESE,110,2.0,10.0,59,0.00,,,0.00,meteohub,2013-05-27 06:47:00,
2013-05-26 23:52:00,50.4,36.5,30.01,SE,131,3.0,10.0,59,0.00,,,0.00,meteohub,2013-05-27 06:52:00,
2013-05-26 23:57:00,50.4,36.1,30.01,West,266,2.0,10.0,58,0.00,,,0.00,meteohub,2013-05-27 06:57:00,